Location: Fauquembergues
(50.6005°N, 2.0987°E)
Time: 20:57:16
(UTC+00:00)

SL-16 R/B - Pass Details

Date: 14 July 2020
Orbit: 985 x 1007 km, 99.5° (Epoch: 14 August)

Event Time Altitude Azimuth Distance (km) Brightness Sun altitude
Exits shadow 00:11:55 - 127° (SE) 3,152 4.8 -17.7°
Reaches altitude 10° 00:13:00 10° 123° (ESE) 2,774 4.6 -17.7°
Maximum altitude 00:18:36 36° 60° (ENE) 1,536 3.8 -17.6°
Drops below altitude 10° 00:24:14 10° 356° (N) 2,796 6.1 -17.5°
Sets 00:26:54 0° 348° (NNW) 3,750 6.9 -17.5°
